This is the latest recevied weather packets stored in our database for station/object KO4DYK. If no packets are shown the sender has not sent any weather packets the latest 10 day(s).
| Time | Temp. | Humidity | Pressure | Rain* | Wind** | Luminosity | Snow |
|---|---|---|---|---|---|---|---|
| 1777055679 | 20.56° C | 87% | 1014.5 hPa | 0 mm | - | 169 W/m² | - |
| 1777055379 | 21.11° C | 86% | 1014.5 hPa | 0 mm | - | 162 W/m² | - |
| 1777055073 | 21.67° C | 87% | 1014.5 hPa | 0 mm | - | 173 W/m² | - |
| 1777054769 | 21.67° C | 84% | 1014.6 hPa | 0 mm | - | 210 W/m² | - |
| 1777054465 | 22.22° C | 85% | 1014.9 hPa | 0 mm | - | 288 W/m² | - |
| 1777054164 | 22.22° C | 88% | 1014.8 hPa | 0 mm | - | 398 W/m² | - |
| 1777053860 | 21.11° C | 89% | 1014.8 hPa | 0 mm | - | 289 W/m² | - |
| 1777053556 | 21.11° C | 89% | 1014.9 hPa | 0 mm | - | 155 W/m² | - |
| 1777053256 | 21.67° C | 89% | 1014.8 hPa | 0 mm | - | 146 W/m² | - |
| 1777052952 | 21.67° C | 89% | 1015.1 hPa | 0 mm | - | 102 W/m² | - |
| 1777052649 | 21.67° C | 89% | 1015 hPa | 0 mm | - | 178 W/m² | - |
| 1777052344 | 21.67° C | 89% | 1014.8 hPa | 0 mm | - | 241 W/m² | - |
| 1777052041 | 21.67° C | 89% | 1014.9 hPa | 0 mm | - | 206 W/m² | - |
| 1777051737 | 21.67° C | 88% | 1014.8 hPa | 0 mm | - | 229 W/m² | - |
| 1777051433 | 21.67° C | 86% | 1014.8 hPa | 0 mm | - | 140 W/m² | - |
| 1777051130 | 22.22° C | 84% | 1015.1 hPa | 0 mm | - | 59 W/m² | - |
| 1777050830 | 22.78° C | 81% | 1014.7 hPa | 0 mm | - | 34 W/m² | - |
| 1777050526 | 22.78° C | 80% | 1015 hPa | 0 mm | - | 65 W/m² | - |
| 1777050224 | 23.33° C | 80% | 1014.8 hPa | 0 mm | - | 128 W/m² | - |
| 1777049920 | 22.78° C | 80% | 1014.8 hPa | 0 mm | - | 216 W/m² | - |
| 1777049615 | 22.78° C | 80% | 1014.9 hPa | 0 mm | - | 267 W/m² | - |
| 1777049313 | 22.22° C | 82% | 1014.9 hPa | 0 mm | - | 218 W/m² | - |
| 1777049010 | 22.22° C | 82% | 1015.1 hPa | 0 mm | - | 79 W/m² | - |
* Rain latest hour (hover to see other rain measurements)
** Current wind speed in m/s (hover to see current wind gust speed)